sat.trackr.live / text

‹ back to catalog

STARLINK-32132

NORAD 60334 · 2024-136F

PAYLOAD ACTIVE UNKNOWN

§ Identity

Operator
Country
US
Launch date
2024-08-02
Launch site
AFETR
Launch vehicle
Mass (kg)
RCS (m²)

Purposes: comms

External: N2YO · Heavens-Above · Gunter

§ Orbital elements

Epoch: 2026-09-21T08:07:22.246752Z

Period
93.85 min
Inclination
53.1598°
Eccentricity
0.0001062
Mean motion
15.34403234 rev/d
Perigee alt
462.0 km
Apogee alt
463.4 km
Semi-major
6,840.8 km
B*
2.8837e-4
RAAN
245.8814°
Arg perigee
94.7973°
Mean anomaly
265.3151°
Rev number
11,963

§ Raw data

STARLINK-321321 60334U 24136F   26264.33845193  .00009380  00000+0  28837-3 0  99982 60334  53.1598 245.8814 0001062  94.7973 265.3151 15.34403234119631

JSON: /api/v1/satellites/60334 · /tle

For live sub-satellite position, see the globe view (requires WebGL).

§ Visibility from observer

Set your observer location to see the next 7 days of passes ≥ 10°. The values pass through the URL so the page stays shareable.

No JS? Fill the form by hand. The geolocation button needs JavaScript.